This is the latest recevied weather packets stored in our database for station/object AA9VI-10. If no packets are shown the sender has not sent any weather packets the latest 10 day(s).
| Time | Temp. | Humidity | Pressure | Rain* | Wind** | Luminosity | Snow |
|---|---|---|---|---|---|---|---|
| 1777822817 | 11.11° C | 62% | 1013.1 hPa | 0 mm | - | - | - |
| 1777822217 | 11.67° C | 58% | 1013.1 hPa | 0 mm | - | - | - |
| 1777821617 | 12.22° C | 57% | 1013 hPa | 0 mm | - | - | - |
| 1777821017 | 12.22° C | 59% | 1012.9 hPa | 0 mm | - | - | - |
| 1777820417 | 11.67° C | 59% | 1012.7 hPa | 0 mm | - | - | - |
| 1777819816 | 11.11° C | 59% | 1012.7 hPa | 0 mm | - | - | - |
| 1777819217 | 11.11° C | 58% | 1012.7 hPa | 0 mm | - | - | - |
| 1777818616 | 11.11° C | 58% | 1012.8 hPa | 0 mm | - | - | - |
| 1777818017 | 10.56° C | 58% | 1012.9 hPa | 0 mm | - | - | - |
| 1777817417 | 10.56° C | 57% | 1013.1 hPa | 0 mm | - | - | - |
| 1777816817 | 10.56° C | 57% | 1013.3 hPa | 0 mm | - | - | - |
| 1777816217 | 10.56° C | 56% | 1013.5 hPa | 0 mm | - | - | - |
| 1777815617 | 10° C | 57% | 1013.7 hPa | 0 mm | - | - | - |
| 1777815017 | 10° C | 57% | 1013.8 hPa | 0 mm | - | - | - |
| 1777814417 | 9.44° C | 57% | 1013.8 hPa | 0 mm | - | - | - |
| 1777813817 | 9.44° C | 58% | 1013.8 hPa | 0 mm | - | - | - |
| 1777813217 | 9.44° C | 58% | 1013.8 hPa | 0 mm | - | - | - |
| 1777812617 | 9.44° C | 58% | 1013.7 hPa | 0 mm | - | - | - |
| 1777812017 | 9.44° C | 57% | 1013.7 hPa | 0 mm | - | - | - |
| 1777811417 | 9.44° C | 57% | 1013.9 hPa | 0 mm | - | - | - |
| 1777810817 | 9.44° C | 57% | 1014 hPa | 0 mm | - | - | - |
| 1777810217 | 8.89° C | 57% | 1013.9 hPa | 0 mm | - | - | - |
| 1777809617 | 8.89° C | 57% | 1013.8 hPa | 0 mm | - | - | - |
| 1777809017 | 8.89° C | 58% | 1013.6 hPa | 0 mm | - | - | - |
| 1777808417 | 8.89° C | 58% | 1013.4 hPa | 0 mm | - | - | - |
* Rain latest hour (hover to see other rain measurements)
** Current wind speed in m/s (hover to see current wind gust speed)